星链-1891 (STARLINK-1891 )

导读 | 星芒AI

STARLINK-1891 是 SpaceX Starlink 项目中的一颗低轨通信卫星,属于第 18 批部署的星链卫星群。该卫星于 2022 年发射,运行在约 550 公里的近地轨道,旨在为全球用户提供高速互联网服务。作为星链网络的一部分,STARLINK-1891 采用先进通信技术,支持低延迟、高带宽的数据传输,助力偏远地区实现网络覆盖。其设计具备可操作性和可持续性,有助于构建全球卫星互联网基础设施。

基本信息
目录编号:
47174
目录名称:
STARLINK-1891
国际标识:
2020-088BE
轨道中心:
EARTH
卫星名称:
星链-1891
卫星全名:
星链-1891 (STARLINK-1891 )
卫星状态:
已陨落 最后检测时间 2025-01-09
发射日期:
2020-11-25 UTC
国别 :
美国 (US)
星等 :
--
轨道信息
数据来源 国际轨道数据
星历时间: 2025-01-09T19:55:38+0800
轨道信息已过期341天
半长轴: 6525.485km
偏心率: 0.0002513
轨道倾角: 53.028°
近地点辐角 231.969°
升交点赤经 21.449°
平近点角 173.776°
近地点: 145.71km
远地点: 148.99km
周期: 87.434分钟
每日圈数: 16.469623
详细信息
固有亮度:
5
最大亮度:
2.5
卫星平台:
Starlink V1.0
覆盖范围:
全球
运营商:
太空探索技术公司
运营商所在国:
美国
制造商(研发单位):
太空探索技术公司
制造商所在国:
美国
使用方式:
暂无
卫星简介
星链(Starlink)计划是由太空探索技术公司(SpaceX)提出的一个巨型低轨卫星互联网星座项目,计划在2019年至2024年间在太空搭建由约1.2万颗卫星组成的“星链”网络,其中1584颗将部署在地球上空550千米处的近地轨道,并从2020年开始工作。该卫星仍在工作。